Location: Belfast
(54.5830°N, 5.9330°W)
Time: 12:59:47
(UTC+00:00)

ISS - Pass Details

Date: 16 December 2017
Orbit: 402 x 406 km, 51.6° (Epoch: 16 December)

Event Time Altitude Azimuth Distance (km) Brightness Sun altitude
Rises 17:35:00 0° 274° (W) 2,332 1.3 -12.7°
Reaches altitude 10° 17:37:59 10° 244° (WSW) 1,467 0.5 -13.1°
Maximum altitude 17:39:30 13° 217° (SW) 1,315 -0.3 -13.3°
Drops below altitude 10° 17:41:00 10° 189° (S) 1,462 -0.6 -13.5°
Sets 17:43:59 0° 159° (SSE) 2,316 0.0 -13.9°
